Time,TemperatureF,DewpointF,PressureIn,WindDirection,WindDirectionDegrees,WindSpeedMPH,WindSpeedGustMPH,Humidity,HourlyPrecipIn,Conditions,Clouds,dailyrainin,SoftwareType,DateUTC
2013-04-25 00:09:00,27.6,23.1,28.21,WNW,284,8.0,14.0,83,0.00,CLR,CLR,0.00,WeatherDisplay:10.37,2013-04-25 05:09:00,
2013-04-25 00:19:00,27.4,22.6,28.22,WNW,284,7.0,15.0,82,0.00,CLR,CLR,0.00,WeatherDisplay:10.37,2013-04-25 05:19:00,
2013-04-25 00:29:00,27.1,22.6,28.22,WNW,284,8.0,13.0,83,0.00,CLR,CLR,0.00,WeatherDisplay:10.37,2013-04-25 05:29:00,
2013-04-25 00:39:00,26.9,22.4,28.22,WNW,284,9.0,14.0,83,0.00,CLR,CLR,0.00,WeatherDisplay:10.37,2013-04-25 05:39:00,
2013-04-25 00:49:00,26.7,22.2,28.23,WNW,282,6.0,13.0,83,0.00,CLR,CLR,0.00,WeatherDisplay:10.37,2013-04-25 05:49:00,
2013-04-25 00:59:00,26.3,21.8,28.23,West,277,5.0,8.0,83,0.00,CLR,CLR,0.00,WeatherDisplay:10.37,2013-04-25 05:59:00,
2013-04-25 01:09:00,25.9,22.0,28.23,West,278,6.0,12.0,85,0.00,CLR,CLR,0.00,WeatherDisplay:10.37,2013-04-25 06:09:00,
2013-04-25 01:19:00,25.7,21.8,28.23,WNW,282,5.0,10.0,85,0.00,CLR,CLR,0.00,WeatherDisplay:10.37,2013-04-25 06:19:00,
2013-04-25 01:29:00,25.6,22.0,28.23,West,281,5.0,10.0,86,0.00,CLR,CLR,0.00,WeatherDisplay:10.37,2013-04-25 06:29:00,
2013-04-25 01:39:00,25.5,21.6,28.23,WNW,283,5.0,10.0,85,0.00,CLR,CLR,0.00,WeatherDisplay:10.37,2013-04-25 06:39:00,
2013-04-25 01:49:00,25.3,21.4,28.23,WNW,284,6.0,12.0,85,0.00,CLR,CLR,0.00,WeatherDisplay:10.37,2013-04-25 06:49:00,
2013-04-25 01:59:00,25.1,21.2,28.23,West,280,5.0,9.0,85,0.00,CLR,CLR,0.00,WeatherDisplay:10.37,2013-04-25 06:59:00,
2013-04-25 02:09:00,24.7,20.8,28.23,West,280,6.0,12.0,85,0.00,CLR,CLR,0.00,WeatherDisplay:10.37,2013-04-25 07:09:00,
2013-04-25 02:19:00,24.6,20.7,28.24,West,280,5.0,12.0,85,0.00,CLR,CLR,0.00,WeatherDisplay:10.37,2013-04-25 07:19:00,
2013-04-25 02:29:00,24.3,20.1,28.23,West,278,5.0,10.0,84,0.00,CLR,CLR,0.00,WeatherDisplay:10.37,2013-04-25 07:29:00,
2013-04-25 02:39:00,24.0,20.1,28.24,West,276,2.0,10.0,85,0.00,CLR,CLR,0.00,WeatherDisplay:10.37,2013-04-25 07:39:00,
2013-04-25 02:49:00,24.0,20.1,28.24,West,278,5.0,9.0,85,0.00,CLR,CLR,0.00,WeatherDisplay:10.37,2013-04-25 07:49:00,
2013-04-25 02:59:00,23.8,19.9,28.24,West,275,5.0,10.0,85,0.00,CLR,CLR,0.00,WeatherDisplay:10.37,2013-04-25 07:59:00,
2013-04-25 03:09:00,23.5,19.7,28.24,West,273,5.0,9.0,85,0.00,CLR,CLR,0.00,WeatherDisplay:10.37,2013-04-25 08:09:00,
2013-04-25 03:19:00,23.3,19.5,28.24,West,272,3.0,8.0,85,0.00,CLR,CLR,0.00,WeatherDisplay:10.37,2013-04-25 08:19:00,
2013-04-25 03:29:00,23.2,19.6,28.24,West,272,3.0,8.0,86,0.00,CLR,CLR,0.00,WeatherDisplay:10.37,2013-04-25 08:29:00,
2013-04-25 03:39:00,23.3,19.7,28.24,West,276,3.0,7.0,86,0.00,CLR,CLR,0.00,WeatherDisplay:10.37,2013-04-25 08:39:00,
2013-04-25 03:49:00,23.1,19.5,28.24,West,275,2.0,7.0,86,0.00,CLR,CLR,0.00,WeatherDisplay:10.37,2013-04-25 08:49:00,
2013-04-25 03:59:00,22.8,19.2,28.24,West,274,2.0,6.0,86,0.00,CLR,CLR,0.00,WeatherDisplay:10.37,2013-04-25 08:59:00,
2013-04-25 04:09:00,22.2,18.6,28.24,West,269,2.0,5.0,86,0.00,CLR,CLR,0.00,WeatherDisplay:10.37,2013-04-25 09:09:00,
2013-04-25 04:19:00,21.8,18.8,28.24,West,268,2.0,6.0,88,0.00,CLR,CLR,0.00,WeatherDisplay:10.37,2013-04-25 09:19:00,
2013-04-25 04:29:00,21.6,18.9,28.24,West,267,3.0,6.0,89,0.00,CLR,CLR,0.00,WeatherDisplay:10.37,2013-04-25 09:29:00,
2013-04-25 04:39:00,21.2,18.8,28.25,West,265,2.0,7.0,90,0.00,CLR,CLR,0.00,WeatherDisplay:10.37,2013-04-25 09:39:00,
2013-04-25 04:49:00,21.0,18.5,28.25,West,265,1.0,4.0,90,0.00,CLR,CLR,0.00,WeatherDisplay:10.37,2013-04-25 09:49:00,
2013-04-25 04:59:00,21.0,18.8,28.25,West,265,3.0,6.0,91,0.00,CLR,CLR,0.00,WeatherDisplay:10.37,2013-04-25 09:59:00,
2013-04-25 05:09:00,21.0,18.8,28.25,West,265,2.0,6.0,91,0.00,CLR,CLR,0.00,WeatherDisplay:10.37,2013-04-25 10:09:00,
2013-04-25 05:19:00,20.8,18.6,28.25,West,265,3.0,9.0,91,0.00,CLR,CLR,0.00,WeatherDisplay:10.37,2013-04-25 10:19:00,
2013-04-25 05:29:00,20.7,18.7,28.25,West,265,5.0,9.0,92,0.00,CLR,CLR,0.00,WeatherDisplay:10.37,2013-04-25 10:29:00,
2013-04-25 05:39:00,20.3,18.1,28.25,West,264,3.0,9.0,91,0.00,CLR,CLR,0.00,WeatherDisplay:10.37,2013-04-25 10:39:00,
2013-04-25 05:49:00,20.0,17.8,28.25,West,264,6.0,8.0,91,0.00,CLR,CLR,0.00,WeatherDisplay:10.37,2013-04-25 10:49:00,
2013-04-25 05:59:00,20.0,17.8,28.26,West,262,6.0,9.0,91,0.00,CLR,CLR,0.00,WeatherDisplay:10.37,2013-04-25 10:59:00,
2013-04-25 06:09:00,20.0,17.8,28.27,West,262,5.0,9.0,91,0.00,CLR,CLR,0.00,WeatherDisplay:10.37,2013-04-25 11:09:00,
2013-04-25 06:19:00,19.9,17.7,28.27,West,264,5.0,7.0,91,0.00,CLR,CLR,0.00,WeatherDisplay:10.37,2013-04-25 11:19:00,
2013-04-25 06:29:00,19.7,17.5,28.27,West,263,5.0,7.0,91,0.00,CLR,CLR,0.00,WeatherDisplay:10.37,2013-04-25 11:29:00,
2013-04-25 06:39:00,19.6,17.4,28.27,West,263,5.0,7.0,91,0.00,CLR,CLR,0.00,WeatherDisplay:10.37,2013-04-25 11:39:00,
2013-04-25 06:49:00,19.6,17.4,28.27,West,262,5.0,8.0,91,0.00,CLR,CLR,0.00,WeatherDisplay:10.37,2013-04-25 11:49:00,
2013-04-25 06:59:00,20.2,18.0,28.27,West,262,6.0,8.0,91,0.00,CLR,CLR,0.00,WeatherDisplay:10.37,2013-04-25 11:59:00,
2013-04-25 07:09:00,21.1,18.9,28.28,West,261,6.0,8.0,91,0.00,CLR,CLR,0.00,WeatherDisplay:10.37,2013-04-25 12:09:00,
2013-04-25 07:19:00,22.0,19.8,28.28,WSW,258,6.0,9.0,91,0.00,CLR,CLR,0.00,WeatherDisplay:10.37,2013-04-25 12:19:00,
2013-04-25 07:29:00,22.7,20.2,28.28,WSW,253,1.0,7.0,90,0.00,CLR,CLR,0.00,WeatherDisplay:10.37,2013-04-25 12:29:00,
2013-04-25 07:39:00,23.5,21.0,28.28,WSW,253,3.0,7.0,90,0.00,CLR,CLR,0.00,WeatherDisplay:10.37,2013-04-25 12:39:00,
2013-04-25 07:49:00,24.2,21.7,28.29,WSW,251,3.0,5.0,90,0.00,CLR,CLR,0.00,WeatherDisplay:10.37,2013-04-25 12:49:00,
2013-04-25 07:59:00,24.9,21.8,28.29,WSW,250,2.0,6.0,88,0.00,CLR,CLR,0.00,WeatherDisplay:10.37,2013-04-25 12:59:00,
2013-04-25 08:09:00,25.7,22.4,28.29,WSW,251,3.0,5.0,87,0.00,CLR,CLR,0.00,WeatherDisplay:10.37,2013-04-25 13:09:00,
2013-04-25 08:19:00,26.6,22.9,28.29,WSW,250,3.0,6.0,86,0.00,CLR,CLR,0.00,WeatherDisplay:10.37,2013-04-25 13:19:00,
2013-04-25 08:29:00,27.1,23.2,28.30,WSW,248,0.0,7.0,85,0.00,CLR,CLR,0.00,WeatherDisplay:10.37,2013-04-25 13:29:00,
2013-04-25 08:39:00,27.7,23.5,28.30,WSW,249,5.0,6.0,84,0.00,CLR,CLR,0.00,WeatherDisplay:10.37,2013-04-25 13:39:00,
2013-04-25 08:49:00,28.0,23.2,28.30,WSW,249,7.0,10.0,82,0.00,CLR,CLR,0.00,WeatherDisplay:10.37,2013-04-25 13:49:00,
2013-04-25 08:59:00,28.6,23.8,28.30,WSW,255,6.0,8.0,82,0.00,CLR,CLR,0.00,WeatherDisplay:10.37,2013-04-25 13:59:00,
2013-04-25 09:09:00,29.4,24.3,28.30,West,261,7.0,10.0,81,0.00,CLR,CLR,0.00,WeatherDisplay:10.37,2013-04-25 14:09:00,
2013-04-25 09:19:00,30.4,24.9,28.30,West,261,6.0,10.0,80,0.00,CLR,CLR,0.00,WeatherDisplay:10.37,2013-04-25 14:19:00,
2013-04-25 09:29:00,31.7,25.9,28.30,West,260,5.0,9.0,79,0.00,CLR,CLR,0.00,WeatherDisplay:10.37,2013-04-25 14:29:00,
2013-04-25 09:39:00,32.4,26.0,28.29,West,260,5.0,8.0,77,0.00,CLR,CLR,0.00,WeatherDisplay:10.37,2013-04-25 14:39:00,
2013-04-25 09:49:00,33.2,26.8,28.29,WSW,247,5.0,7.0,77,0.00,CLR,CLR,0.00,WeatherDisplay:10.37,2013-04-25 14:49:00,
2013-04-25 09:59:00,33.8,27.0,28.29,WSW,245,5.0,8.0,76,0.00,CLR,CLR,0.00,WeatherDisplay:10.37,2013-04-25 14:59:00,
2013-04-25 10:09:00,34.1,27.0,28.29,WSW,247,6.0,8.0,75,0.00,CLR,CLR,0.00,WeatherDisplay:10.37,2013-04-25 15:09:00,
2013-04-25 10:19:00,34.4,27.3,28.29,WSW,247,5.0,9.0,75,0.00,CLR,CLR,0.00,WeatherDisplay:10.37,2013-04-25 15:19:00,
2013-04-25 10:29:00,34.8,27.4,28.29,WSW,243,2.0,6.0,74,0.00,CLR,CLR,0.00,WeatherDisplay:10.37,2013-04-25 15:29:00,
2013-04-25 10:39:00,35.9,28.4,28.29,WSW,242,2.0,8.0,74,0.00,CLR,CLR,0.00,WeatherDisplay:10.37,2013-04-25 15:39:00,
2013-04-25 10:49:00,36.4,27.9,28.28,WSW,243,2.0,10.0,71,0.00,CLR,CLR,0.00,WeatherDisplay:10.37,2013-04-25 15:49:00,
2013-04-25 10:59:00,36.9,28.1,28.28,SW,236,5.0,8.0,70,0.00,CLR,CLR,0.00,WeatherDisplay:10.37,2013-04-25 15:59:00,
2013-04-25 11:09:00,37.3,28.4,28.28,SW,235,3.0,8.0,70,0.00,CLR,CLR,0.00,WeatherDisplay:10.37,2013-04-25 16:09:00,
2013-04-25 11:19:00,37.3,28.1,28.28,WSW,237,6.0,9.0,69,0.00,CLR,CLR,0.00,WeatherDisplay:10.37,2013-04-25 16:19:00,
2013-04-25 11:29:00,37.8,28.8,28.27,WSW,239,5.0,9.0,70,0.00,CLR,CLR,0.00,WeatherDisplay:10.37,2013-04-25 16:29:00,
2013-04-25 11:39:00,38.2,30.0,28.27,SW,236,3.0,9.0,72,0.00,CLR,CLR,0.00,WeatherDisplay:10.37,2013-04-25 16:39:00,
2013-04-25 11:49:00,38.8,29.8,28.27,SW,234,8.0,10.0,70,0.00,CLR,CLR,0.00,WeatherDisplay:10.37,2013-04-25 16:49:00,
2013-04-25 11:59:00,38.4,30.2,28.27,WSW,237,8.0,12.0,72,0.00,CLR,CLR,0.00,WeatherDisplay:10.37,2013-04-25 16:59:00,
2013-04-25 12:09:00,38.3,30.4,28.27,WSW,237,9.0,12.0,73,0.00,CLR,CLR,0.00,WeatherDisplay:10.37,2013-04-25 17:09:00,
2013-04-25 12:19:00,38.6,30.7,28.26,SW,236,8.0,14.0,73,0.00,CLR,CLR,0.00,WeatherDisplay:10.37,2013-04-25 17:19:00,
2013-04-25 12:29:00,38.8,30.9,28.26,WSW,237,8.0,13.0,73,0.00,CLR,CLR,0.00,WeatherDisplay:10.37,2013-04-25 17:29:00,
2013-04-25 12:39:00,39.3,32.7,28.25,SW,236,7.0,13.0,77,0.00,CLR,CLR,0.00,WeatherDisplay:10.37,2013-04-25 17:39:00,
2013-04-25 12:49:00,39.6,33.0,28.25,SW,235,7.0,12.0,77,0.00,CLR,CLR,0.00,WeatherDisplay:10.37,2013-04-25 17:49:00,
2013-04-25 12:59:00,40.0,33.4,28.25,SW,236,8.0,13.0,77,0.00,CLR,CLR,0.00,WeatherDisplay:10.37,2013-04-25 17:59:00,
2013-04-25 13:09:00,40.2,33.2,28.25,SW,236,8.0,14.0,76,0.00,CLR,CLR,0.00,WeatherDisplay:10.37,2013-04-25 18:09:00,
2013-04-25 13:19:00,40.5,33.9,28.24,SW,236,7.0,13.0,77,0.00,CLR,CLR,0.00,WeatherDisplay:10.37,2013-04-25 18:19:00,
2013-04-25 13:29:00,40.9,33.6,28.24,SW,234,7.0,15.0,75,0.00,CLR,CLR,0.00,WeatherDisplay:10.37,2013-04-25 18:29:00,
2013-04-25 13:39:00,41.6,34.6,28.24,SW,236,8.0,14.0,76,0.00,CLR,CLR,0.00,WeatherDisplay:10.37,2013-04-25 18:39:00,
2013-04-25 13:49:00,42.4,36.4,28.23,SW,234,7.0,13.0,79,0.00,CLR,CLR,0.00,WeatherDisplay:10.37,2013-04-25 18:49:00,
2013-04-25 13:59:00,42.5,35.4,28.24,SW,235,8.0,14.0,76,0.00,CLR,CLR,0.00,WeatherDisplay:10.37,2013-04-25 18:59:00,
2013-04-25 14:09:00,42.4,35.4,28.23,SW,236,9.0,13.0,76,0.00,CLR,CLR,0.00,WeatherDisplay:10.37,2013-04-25 19:09:00,
2013-04-25 14:19:00,42.6,35.6,28.22,SW,234,7.0,13.0,76,0.00,CLR,CLR,0.00,WeatherDisplay:10.37,2013-04-25 19:19:00,
2013-04-25 14:29:00,43.2,36.8,28.22,SW,235,7.0,12.0,78,0.00,CLR,CLR,0.00,WeatherDisplay:10.37,2013-04-25 19:29:00,
2013-04-25 14:39:00,43.8,36.4,28.21,SW,234,7.0,13.0,75,0.00,CLR,CLR,0.00,WeatherDisplay:10.37,2013-04-25 19:39:00,
2013-04-25 14:49:00,44.3,36.9,28.21,SW,235,8.0,14.0,75,0.00,CLR,CLR,0.00,WeatherDisplay:10.37,2013-04-25 19:49:00,
2013-04-25 14:59:00,44.4,37.0,28.21,SW,235,10.0,15.0,75,0.00,CLR,CLR,0.00,WeatherDisplay:10.37,2013-04-25 19:59:00,
2013-04-25 15:09:00,45.0,37.8,28.20,SW,235,7.0,15.0,76,0.00,CLR,CLR,0.00,WeatherDisplay:10.37,2013-04-25 20:09:00,
2013-04-25 15:19:00,45.5,38.7,28.20,SW,235,8.0,12.0,77,0.00,CLR,CLR,0.00,WeatherDisplay:10.37,2013-04-25 20:19:00,
2013-04-25 15:29:00,46.2,39.0,28.19,SW,234,8.0,10.0,76,0.00,CLR,CLR,0.00,WeatherDisplay:10.37,2013-04-25 20:29:00,
2013-04-25 15:39:00,46.6,40.1,28.19,SW,234,6.0,13.0,78,0.00,CLR,CLR,0.00,WeatherDisplay:10.37,2013-04-25 20:39:00,
2013-04-25 15:49:00,46.9,39.8,28.18,SW,233,5.0,13.0,76,0.00,CLR,CLR,0.00,WeatherDisplay:10.37,2013-04-25 20:49:00,
2013-04-25 15:59:00,47.0,40.2,28.18,SW,231,3.0,12.0,77,0.00,CLR,CLR,0.00,WeatherDisplay:10.37,2013-04-25 20:59:00,
2013-04-25 16:09:00,47.3,40.8,28.17,SW,233,8.0,12.0,78,0.00,CLR,CLR,0.00,WeatherDisplay:10.37,2013-04-25 21:09:00,
2013-04-25 16:19:00,47.3,41.1,28.17,SW,231,6.0,10.0,79,0.00,CLR,CLR,0.00,WeatherDisplay:10.37,2013-04-25 21:19:00,
2013-04-25 16:29:00,47.7,41.2,28.16,SW,228,5.0,12.0,78,0.00,CLR,CLR,0.00,WeatherDisplay:10.37,2013-04-25 21:29:00,
2013-04-25 16:39:00,47.8,41.3,28.16,SW,230,8.0,10.0,78,0.00,CLR,CLR,0.00,WeatherDisplay:10.37,2013-04-25 21:39:00,
2013-04-25 16:49:00,48.5,41.9,28.16,SW,231,6.0,10.0,78,0.00,CLR,CLR,0.00,WeatherDisplay:10.37,2013-04-25 21:49:00,
2013-04-25 16:59:00,48.5,42.0,28.15,SW,234,5.0,9.0,78,0.00,CLR,CLR,0.00,WeatherDisplay:10.37,2013-04-25 21:59:00,
2013-04-25 17:09:00,48.5,42.0,28.15,SW,230,5.0,9.0,78,0.00,CLR,CLR,0.00,WeatherDisplay:10.37,2013-04-25 22:09:00,
2013-04-25 17:19:00,48.4,42.2,28.14,SW,229,5.0,9.0,79,0.00,CLR,CLR,0.00,WeatherDisplay:10.37,2013-04-25 22:19:00,
2013-04-25 17:29:00,48.4,42.2,28.14,SW,232,5.0,10.0,79,0.00,CLR,CLR,0.00,WeatherDisplay:10.37,2013-04-25 22:29:00,
2013-04-25 17:39:00,48.5,42.2,28.13,SW,229,6.0,9.0,79,0.00,CLR,CLR,0.00,WeatherDisplay:10.37,2013-04-25 22:39:00,
2013-04-25 17:49:00,48.3,42.0,28.13,SW,229,6.0,12.0,79,0.00,CLR,CLR,0.00,WeatherDisplay:10.37,2013-04-25 22:49:00,
2013-04-25 17:59:00,48.3,42.1,28.12,SW,227,5.0,12.0,79,0.00,CLR,CLR,0.00,WeatherDisplay:10.37,2013-04-25 22:59:00,
2013-04-25 18:09:00,48.1,41.9,28.12,SW,225,3.0,7.0,79,0.00,CLR,CLR,0.00,WeatherDisplay:10.37,2013-04-25 23:09:00,
2013-04-25 18:19:00,47.7,41.5,28.11,SW,225,6.0,9.0,79,0.00,CLR,CLR,0.00,WeatherDisplay:10.37,2013-04-25 23:19:00,
2013-04-25 18:29:00,47.6,41.7,28.12,SW,228,5.0,8.0,80,0.00,CLR,CLR,0.00,WeatherDisplay:10.37,2013-04-25 23:29:00,
2013-04-25 18:39:00,47.4,41.5,28.11,SW,228,5.0,10.0,80,0.00,CLR,CLR,0.00,WeatherDisplay:10.37,2013-04-25 23:39:00,
2013-04-25 18:49:00,47.0,41.1,28.10,SW,231,5.0,10.0,80,0.00,CLR,CLR,0.00,WeatherDisplay:10.37,2013-04-25 23:49:00,
2013-04-25 18:59:00,47.1,40.9,28.10,SW,231,6.0,10.0,79,0.00,CLR,CLR,0.00,WeatherDisplay:10.37,2013-04-25 23:59:00,
2013-04-25 19:09:00,46.7,40.9,28.10,SW,228,6.0,8.0,80,0.00,CLR,CLR,0.00,WeatherDisplay:10.37,2013-04-26 00:09:00,
2013-04-25 19:19:00,46.2,40.3,28.09,SW,228,6.0,10.0,80,0.00,CLR,CLR,0.00,WeatherDisplay:10.37,2013-04-26 00:19:00,
2013-04-25 19:29:00,45.3,40.2,28.08,SW,228,7.0,10.0,82,0.00,CLR,CLR,0.00,WeatherDisplay:10.37,2013-04-26 00:29:00,
2013-04-25 19:39:00,44.5,39.7,28.08,SW,228,6.0,10.0,83,0.00,CLR,CLR,0.00,WeatherDisplay:10.37,2013-04-26 00:39:00,
2013-04-25 19:49:00,44.1,39.6,28.08,SW,229,7.0,12.0,84,0.00,CLR,CLR,0.00,WeatherDisplay:10.37,2013-04-26 00:49:00,
2013-04-25 19:59:00,44.2,39.7,28.07,SW,230,7.0,12.0,84,0.00,CLR,CLR,0.00,WeatherDisplay:10.37,2013-04-26 00:59:00,
2013-04-25 20:09:00,44.0,39.5,28.07,SW,230,6.0,12.0,84,0.00,CLR,CLR,0.00,WeatherDisplay:10.37,2013-04-26 01:09:00,
2013-04-25 20:19:00,43.4,38.9,28.07,SW,231,5.0,9.0,84,0.00,CLR,CLR,0.00,WeatherDisplay:10.37,2013-04-26 01:19:00,
2013-04-25 20:29:00,43.1,38.9,28.07,SW,231,6.0,10.0,85,0.00,CLR,CLR,0.00,WeatherDisplay:10.37,2013-04-26 01:29:00,
2013-04-25 20:39:00,42.8,38.9,28.06,SW,230,6.0,12.0,86,0.00,CLR,CLR,0.00,WeatherDisplay:10.37,2013-04-26 01:39:00,
2013-04-25 20:49:00,42.8,38.9,28.06,SW,232,8.0,12.0,86,0.00,CLR,CLR,0.00,WeatherDisplay:10.37,2013-04-26 01:49:00,
2013-04-25 20:59:00,42.6,38.7,28.06,SW,231,7.0,13.0,86,0.00,CLR,CLR,0.00,WeatherDisplay:10.37,2013-04-26 01:59:00,
2013-04-25 21:09:00,42.5,38.6,28.06,SW,233,8.0,13.0,86,0.00,CLR,CLR,0.00,WeatherDisplay:10.37,2013-04-26 02:09:00,
2013-04-25 21:19:00,42.2,38.6,28.06,SW,234,9.0,12.0,87,0.00,CLR,CLR,0.00,WeatherDisplay:10.37,2013-04-26 02:19:00,
2013-04-25 21:29:00,42.9,39.3,28.07,SW,235,8.0,14.0,87,0.00,CLR,CLR,0.00,WeatherDisplay:10.37,2013-04-26 02:29:00,
2013-04-25 21:39:00,43.6,39.7,28.07,SW,236,9.0,14.0,86,0.00,CLR,CLR,0.00,WeatherDisplay:10.37,2013-04-26 02:39:00,
2013-04-25 21:49:00,44.1,39.6,28.07,SW,236,9.0,18.0,84,0.00,CLR,CLR,0.00,WeatherDisplay:10.37,2013-04-26 02:49:00,
2013-04-25 21:59:00,44.0,39.2,28.07,SW,236,8.0,14.0,83,0.00,CLR,CLR,0.00,WeatherDisplay:10.37,2013-04-26 02:59:00,
2013-04-25 22:09:00,43.7,38.9,28.07,SW,236,8.0,15.0,83,0.00,CLR,CLR,0.00,WeatherDisplay:10.37,2013-04-26 03:09:00,
2013-04-25 22:19:00,43.7,38.9,28.06,SW,235,9.0,16.0,83,0.00,CLR,CLR,0.00,WeatherDisplay:10.37,2013-04-26 03:19:00,
2013-04-25 22:29:00,43.5,38.7,28.07,SW,235,9.0,15.0,83,0.00,CLR,CLR,0.00,WeatherDisplay:10.37,2013-04-26 03:29:00,
2013-04-25 22:39:00,44.1,39.0,28.07,SW,235,8.0,15.0,82,0.00,CLR,CLR,0.00,WeatherDisplay:10.37,2013-04-26 03:39:00,
2013-04-25 22:49:00,43.8,38.3,28.06,SW,235,8.0,16.0,81,0.00,CLR,CLR,0.00,WeatherDisplay:10.37,2013-04-26 03:49:00,
2013-04-25 22:59:00,42.9,38.1,28.06,SW,235,9.0,14.0,83,0.00,CLR,CLR,0.00,WeatherDisplay:10.37,2013-04-26 03:59:00,
2013-04-25 23:09:00,42.6,38.1,28.05,SW,236,10.0,15.0,84,0.00,CLR,CLR,0.00,WeatherDisplay:10.37,2013-04-26 04:09:00,
2013-04-25 23:19:00,43.5,38.9,28.05,WSW,237,9.0,16.0,84,0.00,CLR,CLR,0.00,WeatherDisplay:10.37,2013-04-26 04:19:00,
2013-04-25 23:29:00,43.6,38.8,28.04,WSW,239,10.0,16.0,83,0.00,CLR,CLR,0.00,WeatherDisplay:10.37,2013-04-26 04:29:00,
2013-04-25 23:39:00,44.7,39.8,28.03,WSW,240,13.0,18.0,83,0.00,CLR,CLR,0.00,WeatherDisplay:10.37,2013-04-26 04:39:00,
2013-04-25 23:49:00,45.7,40.2,28.03,WSW,242,12.0,20.0,81,0.00,CLR,CLR,0.00,WeatherDisplay:10.37,2013-04-26 04:49:00,
2013-04-25 23:59:00,46.2,40.7,28.03,WSW,243,13.0,20.0,81,0.00,CLR,CLR,0.00,WeatherDisplay:10.37,2013-04-26 04:59:00,